Погода в Жиганске

Погода в Жиганске : погода сейчас, прогноз погоды и архив. Всё, что Вы хотите узнать о погоде в Жиганске!

Хотите узнать прогноз погоды в Жиганске? Тогда Вам сюда: Погода в Жиганске

Поиск расширенной информации на нашем сайте:

Другие новости

Новости СМИ2

Главная страница сайта

Новости сайта

03.07.2017

Напоминаем, что на нашем специализированном сайте Метеоцентр.Азия вы можете получить высокодетализированные автоматические прогнозы погоды по пунктам России, СНГ и мира в авиационном формате (включающие направление и скорость ветра, видимость, явления погоды, количество и форму облачности, нижнюю и верхнюю границу облачности).

Рекомендуем: Портал о строительстве http://geos-inform.com

Погода в Жиганске - сегодня

Время (UTC), дата Ветер
(°,м/с) 
Видим.   Явления Облачность Т
(°С)
Тd
(°С)
f(%) Тe
(°С)
Pmin
(гПа)
dP
(гПа)
Po
(мм)
O2
(г/м3)
Тmin Tmax R s Состояние
почвы
03 18.02.18 тихо ()   20000 м    ясно 
-33.7 -35.9 80 -34  1023.6  -0.1  758  350  -39.8         
06 18.02.18 030 (СВ) 20000 м    ясно 
-31.7 -34.1 79 -33  1023.4  -0.1  758  347           
09 18.02.18 010 (С) 20000 м    4/0 верхняя 
[Ci sp]
-35.9 -38.1 80 -37  1023.8  0.2  758  354           
12 18.02.18 340 (С) 20000 м    3/0 верхняя 
[Ci sp]
-38 -40.9 74 -39  1024  758  357    -31.7       
15 18.02.18 350 (С) 20000 м    4/0 верхняя 
[Ci sp]
-38.8 -41.8 73 -40  1023.4  -0.6  757  358           
18 18.02.18 340 (С) 20000 м    5/0 верхняя 
[Ci sp]
-38.5 -41.4 74 -40  1022.6  -0.8  757  357           
21 18.02.18 330 (СЗ) 20000 м    3/0 верхняя 
[Ci sp]
-38.5 -40.8 79 -40  1022.1  -0.5  756  357           
00 19.02.18 360 (С) 20000 м    1/0 верхняя 
[Ci fib]
-38.4 -41.4 73 -40  1021.7  -0.4  756  357  -40.1      41  равномерный
сухой снег
100% 
03 19.02.18 350 (С) 20000 м    ясно 
-33.4 -36.3 75 -34  1021.1  -0.3  756  349           
06 19.02.18 340 (С) 20000 м    3/0 верхняя 
[Ci fib]
-30.1 -33.2 74 -31  1020.5  -0.4  755  344           
09 19.02.18 тихо ()   20000 м    1/0 верхняя 
[Ci sp]
-32.9 -35.8 75 -33  1020.9  0.2  756  348           
12 19.02.18 360 (С) 20000 м    3/0 верхняя 
[Ci sp]
-35 -37.4 79 -36  1021  756  351    -32.9       
15 19.02.18 010 (С) 20000 м    3/0 верхняя 
[Ci sp]
-34.1 -36.5 79 -38  1019.9  -1  755  350           
18 19.02.18 350 (С) 20000 м  слаб. снег  10/0 верхняя 
[Cs]
-34.2 -36.5 79 -38  1019.1  -0.8  754  349           
21 19.02.18 340 (С) 20000 м  слаб. снег  8/0 верхняя 
[Cs]
-35.2 -37.4 80 -36  1018.3  -0.8  754  351           
00 20.02.18 340 (С) 20000 м  {снег}  3/0 верхняя 
[Ci sp]
-36.4 -38.8 78 -37  1017.5  -0.9  753  352  -36.7    0.2  41  равномерный
сухой снег
100% 
03 20.02.18 тихо ()   20000 м    3/0 верхняя 
[Ci sp]
-31.8 -34.1 80 -32  1017  -0.2  753  345  -36.9         
06 20.02.18 170 (Ю) 20000 м    10/0 верхняя 
[Cs]
-29.3 -32.4 75 -30  1016.3  -0.6  752  342           
09 20.02.18 140 (ЮВ) 20000 м    10/0 верхняя 
[Cs]
-31.7 -34.8 74 -33  1016.4  752  345           
12 20.02.18 150 (ЮВ) 4000 м  слаб. снег  10/0 верхняя 
[Cs]
-32.2 -34.6 79 -36  1016.2  -0.3  752  346    -29.3  0.0     
15 20.02.18 120 (ЮВ) 4000 м  в посл. час снег  10/0 верхняя 
[Cs]
-32.4 -34.8 79 -36  1015.2  -0.9  752  346           
18 20.02.18 150 (ЮВ) 4000 м  слаб. снег  10/0 верхняя 
[Cs]
-31.8 -34.1 80 -36  1014.1  -1  751  344           
03 21.02.18 170 (Ю) 4000 м  слаб. снег  10/0 средняя 
[As op]
-30.9 -33.9 75 -38  1013  -0.5  750  343           
12 21.02.18 210 (ЮЗ) н/о    н/о 
-30.9 -34.2 73 -38  1015.6  1.2  752  344    -30       
15 21.02.18 170 (Ю) 4000 м  слаб. снег  10/0 верхняя 
[Cs]
-30.7 -33 80 -38  1016  0.1  752  343           
Время (UTC), дата Ветер
(°,м/с) 
Видим.   Явления Облачность Т
(°С)
Тd
(°С)
f(%) Тe
(°С)
Pmin
(гПа)
dP
(гПа)
Po
(мм)
O2
(г/м3)
Тmin Tmax R s Состояние
почвы

Для получения пояснительной информации подведите курсор к названию столбца.

ПОГОДА в Жиганске - архив

Всё, что Вы хотите узнать о погоде в Жиганске - удобно и подробно!

Выберите нужную дату (начиная с 1 января 2015* года) и нажмите кнопку "Найти".
Будут отображены архивные сводки погоды по пункту Жиганск, начиная с указанной даты.


Отображать данные в формате CSV (для использования в таблицах Excel)


Внимание! Наш архив погоды предназначен исключительно для личного некоммерческого использования в познавательных целях. Если Вам необходимы официальные справки о состоянии погоды (для производственных, юридических, коммерческих и т.п. целей), обращайтесь в органы Росгидромета.

*Примечание: данная дата относится к архиву по метеостанциям СССР (Россия, СНГ, Балтия).
Архив по метеостанциям Зарубежной Европы и Азии (кроме Китая) хранится 10 дней, по другим регионам земного шара (Китай, Африка, Америка, Австралия, Океания) - 1 день.

Жиганск - район местоположения метеостанции


Название, широта, долгота, высота метеостанции:
Жиганск 66.8°ш. 123.4°д. 92 м над ур. моря [Российская Федерация]

Дополнительная информация

В oтличие oт бoльшинства пoгoдных сайтoв мы публикуем пoдрoбную метеoинфoрмацию в детальнoм прoфессиoнальнoм фoрмате.

Характеристики температуры и влажнoсти вoздуха измеряются на высoте 2 м в тени вдали oт зданий и деревьев.
Скoрoсть ветра измеряется на высoте 10 м (на урoвне рoста челoвека скoрoсть ветра ниже в 1.5-2 раза). Если метеoстанция нахoдится в гoрoде или в лесу, тo скoрoсть ветра занижена на 2-4 м/с пo сравнению с oткрытым местoм. Скoрoсть ветра над акватoриями крупных рек и oзёр, а также на вершинах хoлмoв на 2-5 м/с выше, чем в oбычных услoвиях.
Атмoсфернoе давление в разных тoчках местнoсти мoжет значительнo oтличаться oт давления на метеoстанции, в зависимoсти oт услoвий рельефа (при пoдъёме на 10 м давление пoнижается примернo на 1 мм рт.ст.).